星链-31579 (STARLINK-31579 )

导读

STARLINK-31579是美国太空探索技术公司SpaceX星链星座的一员,于2024年3月19日发射升空。星链项目旨在构建全球卫星互联网星座,为全球提供低延迟、高速率的宽带网络服务,该卫星入轨后将扩充星链星座的服务覆盖范围与网络容量,推进星链星座的部署进程。

Basic Information
目录编号:
59267
目录名称:
STARLINK-31579
国际标识:
2024-050P
轨道中心:
EARTH
卫星名称:
星链-31579
卫星全名:
星链-31579 (STARLINK-31579 )
卫星状态:
在轨 (已飞行821 天)
发射日期:
2024-03-19 UTC
国别 :
美国 (US)
星等 :
--
Orbit Information
数据来源 国际轨道数据 AOE轨道数据
星历时间 2026-06-17T09:47:03+0800
1天前
查看轨道信息
2026-06-16T23:00:00+0800
1天前
查看轨道信息
半长轴 6853.296km 6853.268km
偏心率 0.0001537 0.0001481
轨道倾角 53.160° 53.161°
近地点辐角 93.974° 101.853°
升交点赤经 79.446° 81.534°
平近点角 266.144° 301.452°
近地点 474.105km 474.116km
远地点 476.213km 476.146km
周期 94.104分钟 94.104分钟
每日圈数 15.30219 15.302282
Detailed Information
固有亮度:
5
最大亮度:
0.3
卫星平台:
Starlink v2.0 mini
覆盖范围:
全球
运营商:
太空探索技术公司
运营商所在国:
美国
制造商(研发单位):
太空探索技术公司
制造商所在国:
美国
使用方式:
暂无
Satellite Introduction
星链(Starlink)计划是由太空探索技术公司(SpaceX)提出的一个巨型低轨卫星互联网星座项目,计划在2019年至2024年间在太空搭建由约1.2万颗卫星组成的“星链”网络,其中1584颗将部署在地球上空550千米处的近地轨道,并从2020年开始工作。该卫星仍在工作。
2D Orbit Map
3D Orbit Map
Orbit Altitude Analysis Chart
Orbit Inclination Analysis Chart
Orbit Comprehensive Analysis Chart
View Comprehensive Chart